Year,Month,Day,Hour,Minute,Value (Times are PST for temperature in C)
2013,07,02,00,00,15.90
2013,07,02,00,01,15.90
2013,07,02,00,02,15.90
2013,07,02,00,03,15.90
2013,07,02,00,04,15.90
2013,07,02,00,05,15.80
2013,07,02,00,06,15.80
2013,07,02,00,07,15.80
2013,07,02,00,08,15.80
2013,07,02,00,09,15.80
2013,07,02,00,10,15.80
2013,07,02,00,11,15.80
2013,07,02,00,12,15.80
2013,07,02,00,13,15.80
2013,07,02,00,14,15.70
2013,07,02,00,15,15.70
2013,07,02,00,16,15.70
2013,07,02,00,17,15.70
2013,07,02,00,18,15.70
2013,07,02,00,19,15.70
2013,07,02,00,20,15.70
2013,07,02,00,21,15.70
2013,07,02,00,22,15.70
2013,07,02,00,23,15.70
2013,07,02,00,24,15.60
2013,07,02,00,25,15.60
2013,07,02,00,26,15.60
2013,07,02,00,27,15.60
2013,07,02,00,28,15.60
2013,07,02,00,29,15.60
2013,07,02,00,30,15.60
2013,07,02,00,31,15.60
2013,07,02,00,32,15.60
2013,07,02,00,33,15.60
2013,07,02,00,34,15.60
2013,07,02,00,35,15.60
2013,07,02,00,36,15.50
2013,07,02,00,37,15.50
2013,07,02,00,38,15.50
2013,07,02,00,39,15.50
2013,07,02,00,40,15.50
2013,07,02,00,41,15.50
2013,07,02,00,42,15.50
2013,07,02,00,43,15.50
2013,07,02,00,44,15.50
2013,07,02,00,45,15.50
2013,07,02,00,46,15.50
2013,07,02,00,47,15.50
2013,07,02,00,48,15.50
2013,07,02,00,49,15.50
2013,07,02,00,50,15.50
2013,07,02,00,51,15.50
2013,07,02,00,52,15.40
2013,07,02,00,53,15.40
2013,07,02,00,54,15.40
2013,07,02,00,55,15.40
2013,07,02,00,56,15.40
2013,07,02,00,57,15.40
2013,07,02,00,58,15.40
2013,07,02,00,59,15.40
2013,07,02,01,00,15.40
2013,07,02,01,01,15.40
2013,07,02,01,02,15.40
2013,07,02,01,03,15.40
2013,07,02,01,04,15.40
2013,07,02,01,05,15.40
2013,07,02,01,06,15.30
2013,07,02,01,07,15.30
2013,07,02,01,08,15.30
2013,07,02,01,09,15.30
2013,07,02,01,10,15.30
2013,07,02,01,11,15.30
2013,07,02,01,12,15.30
2013,07,02,01,13,15.30
2013,07,02,01,14,15.30
2013,07,02,01,15,15.30
2013,07,02,01,16,15.30
2013,07,02,01,17,15.20
2013,07,02,01,18,15.20
2013,07,02,01,19,15.20
2013,07,02,01,20,15.20
2013,07,02,01,21,15.20
2013,07,02,01,22,15.20
2013,07,02,01,23,15.20
2013,07,02,01,24,15.20
2013,07,02,01,25,15.20
2013,07,02,01,26,15.20
2013,07,02,01,27,15.20
2013,07,02,01,28,15.20
2013,07,02,01,29,15.20
2013,07,02,01,30,15.20
2013,07,02,01,31,15.20
2013,07,02,01,32,15.20
2013,07,02,01,33,15.20
2013,07,02,01,34,15.20
2013,07,02,01,35,15.20
2013,07,02,01,36,15.20
2013,07,02,01,37,15.20
2013,07,02,01,38,15.20
2013,07,02,01,39,15.20
2013,07,02,01,40,15.20
2013,07,02,01,41,15.20
2013,07,02,01,42,15.20
2013,07,02,01,43,15.30
2013,07,02,01,44,15.30
2013,07,02,01,45,15.30
2013,07,02,01,46,15.30
2013,07,02,01,47,15.30
2013,07,02,01,48,15.30
2013,07,02,01,49,15.30
2013,07,02,01,50,15.30
2013,07,02,01,51,15.30
2013,07,02,01,52,15.40
2013,07,02,01,53,15.40
2013,07,02,01,54,15.40
2013,07,02,01,55,15.40
2013,07,02,01,56,15.40
2013,07,02,01,57,15.40
2013,07,02,01,58,15.40
2013,07,02,01,59,15.40
2013,07,02,02,00,15.40
2013,07,02,02,01,15.40
2013,07,02,02,02,15.40
2013,07,02,02,03,15.30
2013,07,02,02,04,15.30
2013,07,02,02,05,15.30
2013,07,02,02,06,15.30
2013,07,02,02,07,15.30
2013,07,02,02,08,15.30
2013,07,02,02,09,15.30
2013,07,02,02,10,15.30
2013,07,02,02,11,15.30
2013,07,02,02,12,15.30
2013,07,02,02,13,15.30
2013,07,02,02,14,15.30
2013,07,02,02,15,15.30
2013,07,02,02,16,15.30
2013,07,02,02,17,15.30
2013,07,02,02,18,15.30
2013,07,02,02,19,15.30
2013,07,02,02,20,15.30
2013,07,02,02,21,15.30
2013,07,02,02,22,15.30
2013,07,02,02,23,15.30
2013,07,02,02,24,15.30
2013,07,02,02,25,15.30
2013,07,02,02,26,15.30
2013,07,02,02,27,15.30
2013,07,02,02,28,15.30
2013,07,02,02,29,15.30
2013,07,02,02,30,15.30
2013,07,02,02,31,15.30
2013,07,02,02,32,15.30
2013,07,02,02,33,15.30
2013,07,02,02,34,15.30
2013,07,02,02,35,15.30
2013,07,02,02,36,15.30
2013,07,02,02,37,15.30
2013,07,02,02,38,15.30
2013,07,02,02,39,15.30
2013,07,02,02,40,15.30
2013,07,02,02,41,15.30
2013,07,02,02,42,15.20
2013,07,02,02,43,15.20
2013,07,02,02,44,15.20
2013,07,02,02,45,15.20
2013,07,02,02,46,15.20
2013,07,02,02,47,15.20
2013,07,02,02,48,15.20
2013,07,02,02,49,15.20
2013,07,02,02,50,15.20
2013,07,02,02,51,15.20
2013,07,02,02,52,15.10
2013,07,02,02,53,15.10
2013,07,02,02,54,15.10
2013,07,02,02,55,15.10
2013,07,02,02,56,15.10
2013,07,02,02,57,15.10
2013,07,02,02,58,15.10
2013,07,02,02,59,15.10
2013,07,02,03,00,15.10
2013,07,02,03,01,15.10
2013,07,02,03,02,15.10
2013,07,02,03,03,15.00
2013,07,02,03,04,15.00
2013,07,02,03,05,15.00
2013,07,02,03,06,15.00
2013,07,02,03,07,14.90
2013,07,02,03,08,14.90
2013,07,02,03,09,14.90
2013,07,02,03,10,14.90
2013,07,02,03,11,14.90
2013,07,02,03,12,14.90
2013,07,02,03,13,14.80
2013,07,02,03,14,14.80
2013,07,02,03,15,14.80
2013,07,02,03,16,14.80
2013,07,02,03,17,14.80
2013,07,02,03,18,14.80
2013,07,02,03,19,14.80
2013,07,02,03,20,14.80
2013,07,02,03,21,14.80
2013,07,02,03,22,14.80
2013,07,02,03,23,14.80
2013,07,02,03,24,14.80
2013,07,02,03,25,14.80
2013,07,02,03,26,14.80
2013,07,02,03,27,14.80
2013,07,02,03,28,14.80
2013,07,02,03,29,14.80
2013,07,02,03,30,14.80
2013,07,02,03,31,14.80
2013,07,02,03,32,14.80
2013,07,02,03,33,14.80
2013,07,02,03,34,14.80
2013,07,02,03,35,14.80
2013,07,02,03,36,14.80
2013,07,02,03,37,14.80
2013,07,02,03,38,14.80
2013,07,02,03,39,14.80
2013,07,02,03,40,14.80
2013,07,02,03,41,14.80
2013,07,02,03,42,14.80
2013,07,02,03,43,14.80
2013,07,02,03,44,14.80
2013,07,02,03,45,14.80
2013,07,02,03,46,14.80
2013,07,02,03,47,14.80
2013,07,02,03,48,14.80
2013,07,02,03,49,14.80
2013,07,02,03,50,14.80
2013,07,02,03,51,14.80
2013,07,02,03,52,14.70
2013,07,02,03,53,14.70
2013,07,02,03,54,14.70
2013,07,02,03,55,14.70
2013,07,02,03,56,14.70
2013,07,02,03,57,14.70
2013,07,02,03,58,14.70
2013,07,02,03,59,14.70
2013,07,02,04,00,14.70
2013,07,02,04,01,14.70
2013,07,02,04,02,14.70
2013,07,02,04,03,14.70
2013,07,02,04,04,14.70
2013,07,02,04,05,14.70
2013,07,02,04,06,14.70
2013,07,02,04,07,14.70
2013,07,02,04,08,14.70
2013,07,02,04,09,14.70
2013,07,02,04,10,14.70
2013,07,02,04,11,14.70
2013,07,02,04,12,14.70
2013,07,02,04,13,14.70
2013,07,02,04,14,14.70
2013,07,02,04,15,14.70
2013,07,02,04,16,14.70
2013,07,02,04,17,14.70
2013,07,02,04,18,14.70
2013,07,02,04,19,14.70
2013,07,02,04,20,14.80
2013,07,02,04,21,14.80
2013,07,02,04,22,14.80
2013,07,02,04,23,14.80
2013,07,02,04,24,14.80
2013,07,02,04,25,14.80
2013,07,02,04,26,14.80
2013,07,02,04,27,14.80
2013,07,02,04,28,14.80
2013,07,02,04,29,14.80
2013,07,02,04,30,14.80
2013,07,02,04,31,14.80
2013,07,02,04,32,14.80
2013,07,02,04,33,14.80
2013,07,02,04,34,14.80
2013,07,02,04,35,14.80
2013,07,02,04,36,14.80
2013,07,02,04,37,14.80
2013,07,02,04,38,14.70
2013,07,02,04,39,14.70
2013,07,02,04,40,14.70
2013,07,02,04,41,14.60
2013,07,02,04,42,14.60
2013,07,02,04,43,14.50
2013,07,02,04,44,14.50
2013,07,02,04,45,14.40
2013,07,02,04,46,14.40
2013,07,02,04,47,14.40
2013,07,02,04,48,14.30
2013,07,02,04,49,14.30
2013,07,02,04,50,14.20
2013,07,02,04,51,14.20
2013,07,02,04,52,14.20
2013,07,02,04,53,14.20
2013,07,02,04,54,14.20
2013,07,02,04,55,14.10
2013,07,02,04,56,14.10
2013,07,02,04,57,14.10
2013,07,02,04,58,14.10
2013,07,02,04,59,14.10
2013,07,02,05,00,14.10
2013,07,02,05,01,14.10
2013,07,02,05,02,14.10
2013,07,02,05,03,14.10
2013,07,02,05,04,14.10
2013,07,02,05,05,14.10
2013,07,02,05,06,14.10
2013,07,02,05,07,14.10
2013,07,02,05,08,14.20
2013,07,02,05,09,14.20
2013,07,02,05,10,14.30
2013,07,02,05,11,14.30
2013,07,02,05,12,14.40
2013,07,02,05,13,14.40
2013,07,02,05,14,14.50
2013,07,02,05,15,14.50
2013,07,02,05,16,14.60
2013,07,02,05,17,14.70
2013,07,02,05,18,14.70
2013,07,02,05,19,14.70
2013,07,02,05,20,14.70
2013,07,02,05,21,14.80
2013,07,02,05,22,14.80
2013,07,02,05,23,14.80
2013,07,02,05,24,14.80
2013,07,02,05,25,14.80
2013,07,02,05,26,14.80
2013,07,02,05,27,14.80
2013,07,02,05,28,14.80
2013,07,02,05,29,14.80
2013,07,02,05,30,14.80
2013,07,02,05,31,14.80
2013,07,02,05,32,14.80
2013,07,02,05,33,14.80
2013,07,02,05,34,14.80
2013,07,02,05,35,14.80
2013,07,02,05,36,14.80
2013,07,02,05,37,14.80
2013,07,02,05,38,14.80
2013,07,02,05,39,14.80
2013,07,02,05,40,14.80
2013,07,02,05,41,14.80
2013,07,02,05,42,14.80
2013,07,02,05,43,14.80
2013,07,02,05,44,14.80
2013,07,02,05,45,14.80
2013,07,02,05,46,14.80
2013,07,02,05,47,14.80
2013,07,02,05,48,14.80
2013,07,02,05,49,14.80
2013,07,02,05,50,14.80
2013,07,02,05,51,14.80
2013,07,02,05,52,14.80
2013,07,02,05,53,14.80
2013,07,02,05,54,14.80
2013,07,02,05,55,14.80
2013,07,02,05,56,14.80
2013,07,02,05,57,14.80
2013,07,02,05,58,14.80
2013,07,02,05,59,14.90
2013,07,02,06,00,14.90
2013,07,02,06,01,14.90
2013,07,02,06,02,14.90
2013,07,02,06,03,15.00
2013,07,02,06,04,15.00
2013,07,02,06,05,15.00
2013,07,02,06,06,15.00
2013,07,02,06,07,15.00
2013,07,02,06,08,15.00
2013,07,02,06,09,15.10
2013,07,02,06,10,15.10
2013,07,02,06,11,15.10
2013,07,02,06,12,15.10
2013,07,02,06,13,15.10
2013,07,02,06,14,15.10
2013,07,02,06,15,15.10
2013,07,02,06,16,15.10
2013,07,02,06,17,15.10
2013,07,02,06,18,15.10
2013,07,02,06,19,15.10
2013,07,02,06,20,15.10
2013,07,02,06,21,15.10
2013,07,02,06,22,15.20
2013,07,02,06,23,15.20
2013,07,02,06,24,15.20
2013,07,02,06,25,15.20
2013,07,02,06,26,15.20
2013,07,02,06,27,15.20
2013,07,02,06,28,15.30
2013,07,02,06,29,15.30
2013,07,02,06,30,15.30
2013,07,02,06,31,15.30
2013,07,02,06,32,15.30
2013,07,02,06,33,15.30
2013,07,02,06,34,15.30
2013,07,02,06,35,15.40
2013,07,02,06,36,15.40
2013,07,02,06,37,15.40
2013,07,02,06,38,15.40
2013,07,02,06,39,15.40
2013,07,02,06,40,15.40
2013,07,02,06,41,15.40
2013,07,02,06,42,15.40
2013,07,02,06,43,15.50
2013,07,02,06,44,15.50
2013,07,02,06,45,15.50
2013,07,02,06,46,15.60
2013,07,02,06,47,15.60
2013,07,02,06,48,15.60
2013,07,02,06,49,15.70
2013,07,02,06,50,15.70
2013,07,02,06,51,15.70
2013,07,02,06,52,15.80
2013,07,02,06,53,15.80
2013,07,02,06,54,15.80
2013,07,02,06,55,15.80
2013,07,02,06,56,15.80
2013,07,02,06,57,15.90
2013,07,02,06,58,15.90
2013,07,02,06,59,15.90
2013,07,02,07,00,15.90
2013,07,02,07,01,16.00
2013,07,02,07,02,16.00
2013,07,02,07,03,16.00
2013,07,02,07,04,16.10
2013,07,02,07,05,16.10
2013,07,02,07,06,16.10
2013,07,02,07,07,16.10
2013,07,02,07,08,16.10
2013,07,02,07,09,16.10
2013,07,02,07,10,16.10
2013,07,02,07,11,16.20
2013,07,02,07,12,16.20
2013,07,02,07,13,16.20
2013,07,02,07,14,16.20
2013,07,02,07,15,16.30
2013,07,02,07,16,16.30
2013,07,02,07,17,16.30
2013,07,02,07,18,16.40
2013,07,02,07,19,16.40
2013,07,02,07,20,16.40
2013,07,02,07,21,16.50
2013,07,02,07,22,16.50
2013,07,02,07,23,16.60
2013,07,02,07,24,16.60
2013,07,02,07,25,16.60
2013,07,02,07,26,16.60
2013,07,02,07,27,16.70
2013,07,02,07,28,16.70
2013,07,02,07,29,16.70
2013,07,02,07,30,16.80
2013,07,02,07,31,16.80
2013,07,02,07,32,16.80
2013,07,02,07,33,16.90
2013,07,02,07,34,16.90
2013,07,02,07,35,16.90
2013,07,02,07,36,16.90
2013,07,02,07,37,16.90
2013,07,02,07,38,16.90
2013,07,02,07,39,16.90
2013,07,02,07,40,16.90
2013,07,02,07,41,17.00
2013,07,02,07,42,17.00
2013,07,02,07,43,17.00
2013,07,02,07,44,17.00
2013,07,02,07,45,17.00
2013,07,02,07,46,17.00
2013,07,02,07,47,17.00
2013,07,02,07,48,17.10
2013,07,02,07,49,17.10
2013,07,02,07,50,17.10
2013,07,02,07,51,17.20
2013,07,02,07,52,17.20
2013,07,02,07,53,17.20
2013,07,02,07,54,17.20
2013,07,02,07,55,17.20
2013,07,02,07,56,17.20
2013,07,02,07,57,17.30
2013,07,02,07,58,17.30
2013,07,02,07,59,17.30
2013,07,02,08,00,17.30
2013,07,02,08,01,17.30
2013,07,02,08,02,17.40
2013,07,02,08,03,17.40
2013,07,02,08,04,17.40
2013,07,02,08,05,17.40
2013,07,02,08,06,17.50
2013,07,02,08,07,17.50
2013,07,02,08,08,17.60
2013,07,02,08,09,17.60
2013,07,02,08,10,17.70
2013,07,02,08,11,17.70
2013,07,02,08,12,17.70
2013,07,02,08,13,17.70
2013,07,02,08,14,17.80
2013,07,02,08,15,17.80
2013,07,02,08,16,17.80
2013,07,02,08,17,17.80
2013,07,02,08,18,17.80
2013,07,02,08,19,17.80
2013,07,02,08,20,17.80
2013,07,02,08,21,17.70
2013,07,02,08,22,17.70
2013,07,02,08,23,17.80
2013,07,02,08,24,17.80
2013,07,02,08,25,17.80
2013,07,02,08,26,17.80
2013,07,02,08,27,17.80
2013,07,02,08,28,17.90
2013,07,02,08,29,17.90
2013,07,02,08,30,18.00
2013,07,02,08,31,18.00
2013,07,02,08,32,18.10
2013,07,02,08,33,18.10
2013,07,02,08,34,18.20
2013,07,02,08,35,18.20
2013,07,02,08,36,18.30
2013,07,02,08,37,18.30
2013,07,02,08,38,18.30
2013,07,02,08,39,18.30
2013,07,02,08,40,18.30
2013,07,02,08,41,18.40
2013,07,02,08,42,18.40
2013,07,02,08,43,18.40
2013,07,02,08,44,18.40
2013,07,02,08,45,18.40
2013,07,02,08,46,18.40
2013,07,02,08,47,18.50
2013,07,02,08,48,18.50
2013,07,02,08,49,18.60
2013,07,02,08,50,18.70
2013,07,02,08,51,18.70
2013,07,02,08,52,18.80
2013,07,02,08,53,18.80
2013,07,02,08,54,18.80
2013,07,02,08,55,18.90
2013,07,02,08,56,18.90
2013,07,02,08,57,18.90
2013,07,02,08,58,19.00
2013,07,02,08,59,19.00
2013,07,02,09,00,19.00
2013,07,02,09,01,19.10
2013,07,02,09,02,19.10
2013,07,02,09,03,19.10
2013,07,02,09,04,19.10
2013,07,02,09,05,19.20
2013,07,02,09,06,19.20
2013,07,02,09,07,19.20
2013,07,02,09,08,19.20
2013,07,02,09,09,19.20
2013,07,02,09,10,19.30
2013,07,02,09,11,19.30
2013,07,02,09,12,19.30
2013,07,02,09,13,19.40
2013,07,02,09,14,19.40
2013,07,02,09,15,19.60
2013,07,02,09,16,19.70
2013,07,02,09,17,19.80
2013,07,02,09,18,19.90
2013,07,02,09,19,20.00
2013,07,02,09,20,20.20
2013,07,02,09,21,20.30
2013,07,02,09,22,20.40
2013,07,02,09,23,20.40
2013,07,02,09,24,20.40
2013,07,02,09,25,20.50
2013,07,02,09,26,20.50
2013,07,02,09,27,20.50
2013,07,02,09,28,20.60
2013,07,02,09,29,20.60
2013,07,02,09,30,20.60
2013,07,02,09,31,20.60
2013,07,02,09,32,20.70
2013,07,02,09,33,20.80
2013,07,02,09,34,20.80
2013,07,02,09,35,20.80
2013,07,02,09,36,20.80
2013,07,02,09,37,20.70
2013,07,02,09,38,20.70
2013,07,02,09,39,20.70
2013,07,02,09,40,20.70
2013,07,02,09,41,20.70
2013,07,02,09,42,20.80
2013,07,02,09,43,20.90
2013,07,02,09,44,21.00
2013,07,02,09,45,21.00
2013,07,02,09,46,21.10
2013,07,02,09,47,21.10
2013,07,02,09,48,21.20
2013,07,02,09,49,21.20
2013,07,02,09,50,21.30
2013,07,02,09,51,21.30
2013,07,02,09,52,21.30
2013,07,02,09,53,21.30
2013,07,02,09,54,21.30
2013,07,02,09,55,21.30
2013,07,02,09,56,21.20
2013,07,02,09,57,21.20
2013,07,02,09,58,21.20
2013,07,02,09,59,21.30
2013,07,02,10,00,21.30
2013,07,02,10,01,21.40
2013,07,02,10,02,21.50
2013,07,02,10,03,21.50
2013,07,02,10,04,21.60
2013,07,02,10,05,21.60
2013,07,02,10,06,21.70
2013,07,02,10,07,21.70
2013,07,02,10,08,21.70
2013,07,02,10,09,21.80
2013,07,02,10,10,21.80
2013,07,02,10,11,21.80
2013,07,02,10,12,21.90
2013,07,02,10,13,21.90
2013,07,02,10,14,22.00
2013,07,02,10,15,22.00
2013,07,02,10,16,22.10
2013,07,02,10,17,22.10
2013,07,02,10,18,22.10
2013,07,02,10,19,22.20
2013,07,02,10,20,22.20
2013,07,02,10,21,22.20
2013,07,02,10,22,22.30
2013,07,02,10,23,22.30
2013,07,02,10,24,22.30
2013,07,02,10,25,22.30
2013,07,02,10,26,22.20
2013,07,02,10,27,22.20
2013,07,02,10,28,22.10
2013,07,02,10,29,22.10
2013,07,02,10,30,22.10
2013,07,02,10,31,22.10
2013,07,02,10,32,22.20
2013,07,02,10,33,22.30
2013,07,02,10,34,22.30
2013,07,02,10,35,22.30
2013,07,02,10,36,22.30
2013,07,02,10,37,22.30
2013,07,02,10,38,22.40
2013,07,02,10,39,22.40
2013,07,02,10,40,22.50
2013,07,02,10,41,22.50
2013,07,02,10,42,22.50
2013,07,02,10,43,22.50
2013,07,02,10,44,22.50
2013,07,02,10,45,22.60
2013,07,02,10,46,22.60
2013,07,02,10,47,22.60
2013,07,02,10,48,22.60
2013,07,02,10,49,22.50
2013,07,02,10,50,22.40
2013,07,02,10,51,22.40
2013,07,02,10,52,22.40
2013,07,02,10,53,22.50
2013,07,02,10,54,22.50
2013,07,02,10,55,22.50
2013,07,02,10,56,22.60
2013,07,02,10,57,22.70
2013,07,02,10,58,22.60
2013,07,02,10,59,22.70
2013,07,02,11,00,22.70
2013,07,02,11,01,22.70
2013,07,02,11,02,22.70
2013,07,02,11,03,22.80
2013,07,02,11,04,22.80
2013,07,02,11,05,22.90
2013,07,02,11,06,23.00
2013,07,02,11,07,23.00
2013,07,02,11,08,23.00
2013,07,02,11,09,23.00
2013,07,02,11,10,23.00
2013,07,02,11,11,23.00
2013,07,02,11,12,23.00
2013,07,02,11,13,23.00
2013,07,02,11,14,23.10
2013,07,02,11,15,23.10
2013,07,02,11,16,23.10
2013,07,02,11,17,23.10
2013,07,02,11,18,23.10
2013,07,02,11,19,23.00
2013,07,02,11,20,23.00
2013,07,02,11,21,22.90
2013,07,02,11,22,22.80
2013,07,02,11,23,22.80
2013,07,02,11,24,22.70
2013,07,02,11,25,22.70
2013,07,02,11,26,22.80
2013,07,02,11,27,22.80
2013,07,02,11,28,22.90
2013,07,02,11,29,22.90
2013,07,02,11,30,22.90
2013,07,02,11,31,23.00
2013,07,02,11,32,23.00
2013,07,02,11,33,23.20
2013,07,02,11,34,23.30
2013,07,02,11,35,23.40
2013,07,02,11,36,23.40
2013,07,02,11,37,23.30
2013,07,02,11,38,23.30
2013,07,02,11,39,23.30
2013,07,02,11,40,23.30
2013,07,02,11,41,23.30
2013,07,02,11,42,23.30
2013,07,02,11,43,23.30
2013,07,02,11,44,23.30
2013,07,02,11,45,23.30
2013,07,02,11,46,23.40
2013,07,02,11,47,23.40
2013,07,02,11,48,23.30
2013,07,02,11,49,23.30
2013,07,02,11,50,23.30
2013,07,02,11,51,23.30
2013,07,02,11,52,23.40
2013,07,02,11,53,23.40
2013,07,02,11,54,23.50
2013,07,02,11,55,23.50
2013,07,02,11,56,23.40
2013,07,02,11,57,23.40
2013,07,02,11,58,23.30
2013,07,02,11,59,23.20
2013,07,02,12,00,23.10
2013,07,02,12,01,23.10
2013,07,02,12,02,23.10
2013,07,02,12,03,23.10
2013,07,02,12,04,23.10
2013,07,02,12,05,23.20
2013,07,02,12,06,23.30
2013,07,02,12,07,23.30
2013,07,02,12,08,23.30
2013,07,02,12,09,23.30
2013,07,02,12,10,23.30
2013,07,02,12,11,23.40
2013,07,02,12,12,23.50
2013,07,02,12,13,23.60
2013,07,02,12,14,23.60
2013,07,02,12,15,23.60
2013,07,02,12,16,23.70
2013,07,02,12,17,23.70
2013,07,02,12,18,23.60
2013,07,02,12,19,23.50
2013,07,02,12,20,23.50
2013,07,02,12,21,23.40
2013,07,02,12,22,23.50
2013,07,02,12,23,23.50
2013,07,02,12,24,23.60
2013,07,02,12,25,23.60
2013,07,02,12,26,23.70
2013,07,02,12,27,23.70
2013,07,02,12,28,23.70
2013,07,02,12,29,23.80
2013,07,02,12,30,23.90
2013,07,02,12,31,23.90
2013,07,02,12,32,23.90
2013,07,02,12,33,24.00
2013,07,02,12,34,24.00
2013,07,02,12,35,24.10
2013,07,02,12,36,24.10
2013,07,02,12,37,24.10
2013,07,02,12,38,24.10
2013,07,02,12,39,24.10
2013,07,02,12,40,24.10
2013,07,02,12,41,24.10
2013,07,02,12,42,24.20
2013,07,02,12,43,24.20
2013,07,02,12,44,24.10
2013,07,02,12,45,24.10
2013,07,02,12,46,24.10
2013,07,02,12,47,24.10
2013,07,02,12,48,24.00
2013,07,02,12,49,23.90
2013,07,02,12,50,23.90
2013,07,02,12,51,23.90
2013,07,02,12,52,23.90
2013,07,02,12,53,23.90
2013,07,02,12,54,24.00
2013,07,02,12,55,24.00
2013,07,02,12,56,24.10
2013,07,02,12,57,24.10
2013,07,02,12,58,24.20
2013,07,02,12,59,24.20
2013,07,02,13,00,24.20
2013,07,02,13,01,24.20
2013,07,02,13,02,24.10
2013,07,02,13,03,24.00
2013,07,02,13,04,23.90
2013,07,02,13,05,23.80
2013,07,02,13,06,23.80
2013,07,02,13,07,23.80
2013,07,02,13,08,23.80
2013,07,02,13,09,24.00
2013,07,02,13,10,24.10
2013,07,02,13,11,24.10
2013,07,02,13,12,24.20
2013,07,02,13,13,24.10
2013,07,02,13,14,24.10
2013,07,02,13,15,24.00
2013,07,02,13,16,23.90
2013,07,02,13,17,23.90
2013,07,02,13,18,23.90
2013,07,02,13,19,23.90
2013,07,02,13,20,24.00
2013,07,02,13,21,24.00
2013,07,02,13,22,24.00
2013,07,02,13,23,23.90
2013,07,02,13,24,23.80
2013,07,02,13,25,23.80
2013,07,02,13,26,23.90
2013,07,02,13,27,24.00
2013,07,02,13,28,24.10
2013,07,02,13,29,24.00
2013,07,02,13,30,23.90
2013,07,02,13,31,23.90
2013,07,02,13,32,23.90
2013,07,02,13,33,23.90
2013,07,02,13,34,23.90
2013,07,02,13,35,24.00
2013,07,02,13,36,24.00
2013,07,02,13,37,24.10
2013,07,02,13,38,24.10
2013,07,02,13,39,24.10
2013,07,02,13,40,24.10
2013,07,02,13,41,24.10
2013,07,02,13,42,24.10
2013,07,02,13,43,24.10
2013,07,02,13,44,24.10
2013,07,02,13,45,24.10
2013,07,02,13,46,24.10
2013,07,02,13,47,24.10
2013,07,02,13,48,24.20
2013,07,02,13,49,24.30
2013,07,02,13,50,24.40
2013,07,02,13,51,24.40
2013,07,02,13,52,24.40
2013,07,02,13,53,24.40
2013,07,02,13,54,24.30
2013,07,02,13,55,24.30
2013,07,02,13,56,24.30
2013,07,02,13,57,24.30
2013,07,02,13,58,24.30
2013,07,02,13,59,24.30
2013,07,02,14,00,24.30
2013,07,02,14,01,24.40
2013,07,02,14,02,24.40
2013,07,02,14,03,24.50
2013,07,02,14,04,24.50
2013,07,02,14,05,24.50
2013,07,02,14,06,24.50
2013,07,02,14,07,24.50
2013,07,02,14,08,24.60
2013,07,02,14,09,24.60
2013,07,02,14,10,24.70
2013,07,02,14,11,24.70
2013,07,02,14,12,24.70
2013,07,02,14,13,24.60
2013,07,02,14,14,24.60
2013,07,02,14,15,24.50
2013,07,02,14,16,24.50
2013,07,02,14,17,24.40
2013,07,02,14,18,24.40
2013,07,02,14,19,24.30
2013,07,02,14,20,24.40
2013,07,02,14,21,24.50
2013,07,02,14,22,24.50
2013,07,02,14,23,24.60
2013,07,02,14,24,24.60
2013,07,02,14,25,24.70
2013,07,02,14,26,24.60
2013,07,02,14,27,24.60
2013,07,02,14,28,24.60
2013,07,02,14,29,24.60
2013,07,02,14,30,24.60
2013,07,02,14,31,24.60
2013,07,02,14,32,24.80
2013,07,02,14,33,24.90
2013,07,02,14,34,25.00
2013,07,02,14,35,25.10
2013,07,02,14,36,25.10
2013,07,02,14,37,25.10
2013,07,02,14,38,25.00
2013,07,02,14,39,24.90
2013,07,02,14,40,24.90
2013,07,02,14,41,24.90
2013,07,02,14,42,24.90
2013,07,02,14,43,24.90
2013,07,02,14,44,24.90
2013,07,02,14,45,25.00
2013,07,02,14,46,25.10
2013,07,02,14,47,25.10
2013,07,02,14,48,25.20
2013,07,02,14,49,25.30
2013,07,02,14,50,25.40
2013,07,02,14,51,25.50
2013,07,02,14,52,25.60
2013,07,02,14,53,25.70
2013,07,02,14,54,25.80
2013,07,02,14,55,25.80
2013,07,02,14,56,25.80
2013,07,02,14,57,25.80
2013,07,02,14,58,25.70
2013,07,02,14,59,25.70
2013,07,02,15,00,25.60
2013,07,02,15,01,25.40
2013,07,02,15,02,25.40
2013,07,02,15,03,25.30
2013,07,02,15,04,25.30
2013,07,02,15,05,25.30
2013,07,02,15,06,25.30
2013,07,02,15,07,25.40
2013,07,02,15,08,25.40
2013,07,02,15,09,25.40
2013,07,02,15,10,25.40
2013,07,02,15,11,25.40
2013,07,02,15,12,25.40
2013,07,02,15,13,25.40
2013,07,02,15,14,25.50
2013,07,02,15,15,25.60
2013,07,02,15,16,25.70
2013,07,02,15,17,25.70
2013,07,02,15,18,25.70
2013,07,02,15,19,25.60
2013,07,02,15,20,25.70
2013,07,02,15,21,25.60
2013,07,02,15,22,25.60
2013,07,02,15,23,25.60
2013,07,02,15,24,25.60
2013,07,02,15,25,25.60
2013,07,02,15,26,25.80
2013,07,02,15,27,25.90
2013,07,02,15,28,25.90
2013,07,02,15,29,25.90
2013,07,02,15,30,26.00
2013,07,02,15,31,26.10
2013,07,02,15,32,26.20
2013,07,02,15,33,26.30
2013,07,02,15,34,26.40
2013,07,02,15,35,26.40
2013,07,02,15,36,26.50
2013,07,02,15,37,26.60
2013,07,02,15,38,26.60
2013,07,02,15,39,26.50
2013,07,02,15,40,26.50
2013,07,02,15,41,26.40
2013,07,02,15,42,26.40
2013,07,02,15,43,26.40
2013,07,02,15,44,26.40
2013,07,02,15,45,26.40
2013,07,02,15,46,26.30
2013,07,02,15,47,26.20
2013,07,02,15,48,26.20
2013,07,02,15,49,26.20
2013,07,02,15,50,26.20
2013,07,02,15,51,26.30
2013,07,02,15,52,26.40
2013,07,02,15,53,26.50
2013,07,02,15,54,26.70
2013,07,02,15,55,26.80
2013,07,02,15,56,26.90
2013,07,02,15,57,26.90
2013,07,02,15,58,27.00
2013,07,02,15,59,27.10
2013,07,02,16,00,27.20
2013,07,02,16,01,27.20
2013,07,02,16,02,27.20
2013,07,02,16,03,27.20
2013,07,02,16,04,27.20
2013,07,02,16,05,27.20
2013,07,02,16,06,27.20
2013,07,02,16,07,27.20
2013,07,02,16,08,27.30
2013,07,02,16,09,27.30
2013,07,02,16,10,27.40
2013,07,02,16,11,27.40
2013,07,02,16,12,27.40
2013,07,02,16,13,27.40
2013,07,02,16,14,27.50
2013,07,02,16,15,27.50
2013,07,02,16,16,27.50
2013,07,02,16,17,27.50
2013,07,02,16,18,27.50
2013,07,02,16,19,27.50
2013,07,02,16,20,27.50
2013,07,02,16,21,27.50
2013,07,02,16,22,27.50
2013,07,02,16,23,27.40
2013,07,02,16,24,27.50
2013,07,02,16,25,27.50
2013,07,02,16,26,27.40
2013,07,02,16,27,27.30
2013,07,02,16,28,27.10
2013,07,02,16,29,26.90
2013,07,02,16,30,26.70
2013,07,02,16,31,26.40
2013,07,02,16,32,26.30
2013,07,02,16,33,26.20
2013,07,02,16,34,26.00
2013,07,02,16,35,25.80
2013,07,02,16,36,25.60
2013,07,02,16,37,25.40
2013,07,02,16,38,25.40
2013,07,02,16,39,25.30
2013,07,02,16,40,25.30
2013,07,02,16,41,25.30
2013,07,02,16,42,25.30
2013,07,02,16,43,25.30
2013,07,02,16,44,25.40
2013,07,02,16,45,25.40
2013,07,02,16,46,25.40
2013,07,02,16,47,25.40
2013,07,02,16,48,25.40
2013,07,02,16,49,25.40
2013,07,02,16,50,25.40
2013,07,02,16,51,25.40
2013,07,02,16,52,25.30
2013,07,02,16,53,25.20
2013,07,02,16,54,25.10
2013,07,02,16,55,25.00
2013,07,02,16,56,24.90
2013,07,02,16,57,24.90
2013,07,02,16,58,24.90
2013,07,02,16,59,24.80
2013,07,02,17,00,24.80
2013,07,02,17,01,24.90
2013,07,02,17,02,25.00
2013,07,02,17,03,25.00
2013,07,02,17,04,25.10
2013,07,02,17,05,25.20
2013,07,02,17,06,25.30
2013,07,02,17,07,25.30
2013,07,02,17,08,25.30
2013,07,02,17,09,25.30
2013,07,02,17,10,25.30
2013,07,02,17,11,25.10
2013,07,02,17,12,25.10
2013,07,02,17,13,25.10
2013,07,02,17,14,25.20
2013,07,02,17,15,25.20
2013,07,02,17,16,25.20
2013,07,02,17,17,25.30
2013,07,02,17,18,25.40
2013,07,02,17,19,25.50